Elmira, NY

8:10 AM EST on December 08, 2019 (GMT -0500)
Elmira-Corning Regional

Weather History for KELM - November, 2019

Change the Weather History Date:

Monday, November 11, 2019

  Actual Average Record
Temperature  
Mean Temperature 36 °F -  
Max Temperature 42 °F 49 °F 72 °F (1949)
Min Temperature 30 °F 32 °F 17 °F (1961)
Degree Days  
Heating Degree Days 29    
Moisture  
Dew Point 32 °F    
Average Humidity 86    
Maximum Humidity 93    
Minimum Humidity 75    
Precipitation  
Precipitation 0.00 in - - ()
Sea Level Pressure  
Sea Level Pressure 30.05 in    
Wind  
Wind Speed 6 mph (NE)    
Max Wind Speed 10 mph    
Max Gust Speed -    
Visibility 10 miles    
Events      
Averages and records for this station are not official NWS values.
T = Trace of Precipitation, MM = Missing Value Source: NWS Daily Summary

Daily Weather History Graph

Daily Weather History Graph

Search for Another Location

Airport or City:

Astronomy

Nov. 11, 2019 Rise Set
Actual Time 6:52 AM EST 4:50 PM EST
Civil Twilight 6:22 AM EST 5:19 PM EST
Nautical Twilight 5:49 AM EST 5:53 PM EST
Astronomical Twilight 5:16 AM EST 6:26 PM EST
Moon 4:46 PM EST (11/11) 5:39 AM EST (11/11)
Length of Visible Light 10h 57m
Length of Day
9h 57m
Waxing Gibbous, 99% of the Moon is Illuminated
Nov 11
Waxing Gibbous
Nov 12
Full
Nov 19
Last Quarter
Nov 26
New
Dec 4
First Quarter

Hourly Weather History & Observations

Time (EST) Temp. Windchill Dew Point Humidity Pressure Visibility Wind Dir Wind Speed Gust Speed Precip Events Conditions
12:53 AM 41.0 °F 39.0 °F 37.9 °F 89% 30.04 in 10.0 mi East 3.5 mph - 0.00 in   Overcast
1:53 AM 42.1 °F 40.2 °F 39.0 °F 89% 30.04 in 10.0 mi ENE 3.5 mph - N/A   Overcast
2:53 AM 41.0 °F - 39.0 °F 93% 30.05 in 10.0 mi Calm Calm - N/A   Overcast
3:51 AM 42.8 °F 40.1 °F 37.4 °F 81% 30.03 in 9.0 mi ENE 4.6 mph - N/A   Overcast
3:53 AM 42.1 °F 39.2 °F 37.9 °F 85% 30.05 in 8.0 mi ENE 4.6 mph - N/A   Overcast
4:53 AM 41.0 °F 35.2 °F 37.9 °F 89% 30.07 in 6.0 mi NE 9.2 mph - N/A   Overcast
5:53 AM 39.9 °F 35.1 °F 37.0 °F 89% 30.09 in 9.0 mi NE 6.9 mph - N/A   Overcast
6:03 AM 39.9 °F 34.5 °F 36.0 °F 86% 30.07 in 10.0 mi NE 8.1 mph - N/A   Overcast
6:25 AM 39.0 °F 33.4 °F 35.1 °F 86% 30.08 in 10.0 mi NE 8.1 mph - N/A   Overcast
6:53 AM 39.0 °F 34.8 °F 36.0 °F 89% 30.11 in 10.0 mi ENE 5.8 mph - N/A   Overcast
7:26 AM 37.9 °F 32.7 °F 35.1 °F 89% 30.09 in 10.0 mi NE 6.9 mph - N/A   Overcast
7:53 AM 37.0 °F 31.6 °F 34.0 °F 89% 30.12 in 10.0 mi NE 6.9 mph - N/A   Overcast
8:02 AM 37.0 °F 31.0 °F 34.0 °F 89% 30.10 in 10.0 mi NNE 8.1 mph - N/A   Overcast
8:13 AM 37.0 °F 31.0 °F 34.0 °F 89% 30.10 in 10.0 mi NNE 8.1 mph - N/A   Overcast
8:53 AM 36.0 °F 31.1 °F 32.0 °F 86% 30.12 in 10.0 mi North 5.8 mph - N/A   Overcast
9:13 AM 36.0 °F - 32.0 °F 86% 30.11 in 10.0 mi North - - N/A   Overcast
9:29 AM 35.1 °F 30.1 °F 30.9 °F 85% 30.11 in 10.0 mi NNE 5.8 mph - N/A   Overcast
9:53 AM 35.1 °F 29.3 °F 30.9 °F 85% 30.14 in 10.0 mi NE 6.9 mph - N/A   Overcast
10:26 AM 35.1 °F 27.9 °F 30.0 °F 82% 30.10 in 10.0 mi NNE 9.2 mph - N/A   Overcast
10:53 AM 34.0 °F 26.6 °F 30.0 °F 85% 30.14 in 10.0 mi NNE 9.2 mph - N/A   Overcast
11:53 AM 34.0 °F 27.2 °F 30.0 °F 85% 30.12 in 10.0 mi North 8.1 mph - N/A   Overcast
12:53 PM 34.0 °F 26.0 °F 28.0 °F 79% 30.08 in 10.0 mi NNE 10.4 mph - N/A   Overcast
1:53 PM 34.0 °F 27.2 °F 27.0 °F 75% 30.05 in 10.0 mi NE 8.1 mph - N/A   Overcast
2:53 PM 33.1 °F 26.1 °F 27.0 °F 78% 30.05 in 10.0 mi NNE 8.1 mph - N/A   Overcast
3:53 PM 33.1 °F 24.9 °F 27.0 °F 78% 30.02 in 10.0 mi NNE 10.4 mph - N/A   Overcast
4:53 PM 32.0 °F 24.2 °F 27.0 °F 82% 29.99 in 10.0 mi NNE 9.2 mph - N/A   Overcast
5:53 PM 32.0 °F 24.2 °F 28.0 °F 85% 29.99 in 10.0 mi NNE 9.2 mph - N/A   Overcast
6:53 PM 30.9 °F 25.2 °F 28.0 °F 89% 29.99 in 10.0 mi North 5.8 mph - N/A   Overcast
7:53 PM 30.9 °F 24.3 °F 27.0 °F 85% 29.96 in 10.0 mi NNE 6.9 mph - N/A   Overcast
8:53 PM 30.9 °F 23.5 °F 27.0 °F 85% 29.92 in 10.0 mi NE 8.1 mph - N/A   Overcast
9:53 PM 30.9 °F 24.3 °F 28.0 °F 89% 29.89 in 10.0 mi North 6.9 mph - N/A   Overcast
10:53 PM 30.0 °F 22.4 °F 27.0 °F 88% 29.88 in 9.0 mi North 8.1 mph - N/A   Overcast
11:53 PM 30.0 °F 23.2 °F 27.0 °F 88% 29.85 in 10.0 mi NNE 6.9 mph - 0.00 in   Overcast